Oxford, NC

7:41 PM EST on November 11, 2019 (GMT -0500)
Henderson-Oxford

Weather History for KHNZ - October, 2019

Change the Weather History Date:

Monday, October 21, 2019

  Actual Average (WUND) Record (WUND)
Temperature  
Mean Temperature 58 °F -  
Max Temperature 68 °F - - (-1)
Min Temperature 48 °F - - (-1)
Degree Days  
Heating Degree Days 7    
Growing Degree Days 8 (Base 50)    
Moisture  
Dew Point 53 °F    
Average Humidity 85    
Maximum Humidity 98    
Minimum Humidity 59    
Precipitation  
Precipitation 0.00 in - - ()
Sea Level Pressure  
Sea Level Pressure 30.05 in    
Wind  
Wind Speed 1 mph (East)    
Max Wind Speed 9 mph    
Max Gust Speed -    
Visibility 9 miles    
Events      
Averages and records for this station are not official NWS values.
T = Trace of Precipitation, MM = Missing Value Source: NWS Daily Summary

Daily Weather History Graph

Daily Weather History Graph

Search for Another Location

Airport or City:

Astronomy

Oct. 21, 2019 Rise Set
Actual Time 7:26 AM EDT 6:30 PM EDT
Civil Twilight 7:00 AM EDT 6:56 PM EDT
Nautical Twilight 6:30 AM EDT 7:26 PM EDT
Astronomical Twilight 6:00 AM EDT 7:56 PM EDT
Moon No Moon Rise 2:37 PM EDT (10/21)
Length of Visible Light 11h 56m
Length of Day
11h 04m
Waning Gibbous, 48% of the Moon is Illuminated
Oct 21
Waning Gibbous
Oct 27
New
Nov 4
First Quarter
Nov 12
Full
Nov 19
Last Quarter

Hourly Weather History & Observations

Time (EDT) Temp. Dew Point Humidity Pressure Visibility Wind Dir Wind Speed Gust Speed Precip Events Conditions
12:15 AM 55.6 °F 53.6 °F 93% 29.98 in 10.0 mi Calm Calm - N/A   Overcast
12:35 AM 55.6 °F 53.6 °F 93% 29.98 in 10.0 mi North 6.9 mph - N/A   Overcast
12:55 AM 55.4 °F 52.9 °F 91% 29.98 in 10.0 mi NNE 5.8 mph - N/A   Mostly Cloudy
1:15 AM 55.6 °F 52.7 °F 90% 29.98 in 10.0 mi NNE 5.8 mph - N/A   Mostly Cloudy
1:35 AM 55.0 °F 52.3 °F 91% 29.98 in 10.0 mi Calm Calm - N/A   Scattered Clouds
1:55 AM 54.7 °F 52.2 °F 91% 29.99 in 10.0 mi Calm Calm - N/A   Clear
2:15 AM 54.1 °F 52.0 °F 92% 29.99 in 10.0 mi Calm Calm - N/A   Clear
2:35 AM 53.4 °F 51.8 °F 94% 29.99 in 10.0 mi Calm Calm - N/A   Clear
2:55 AM 52.9 °F 51.8 °F 96% 30.00 in 10.0 mi Calm Calm - N/A   Clear
3:15 AM 52.7 °F 51.4 °F 95% 30.00 in 10.0 mi Calm Calm - N/A   Clear
3:35 AM 51.8 °F 50.9 °F 97% 29.99 in 10.0 mi Calm Calm - N/A   Clear
3:55 AM 51.4 °F 50.9 °F 98% 29.99 in 10.0 mi Calm Calm - N/A   Clear
4:15 AM 52.0 °F 51.1 °F 97% 30.00 in 10.0 mi Calm Calm - N/A   Clear
4:35 AM 51.3 °F 50.5 °F 97% 30.00 in 10.0 mi Calm Calm - N/A   Clear
4:55 AM 50.9 °F 50.2 °F 97% 30.01 in 7.0 mi Calm Calm - N/A   Clear
5:15 AM 51.1 °F 50.4 °F 97% 30.01 in 10.0 mi Calm Calm - N/A   Clear
5:35 AM 51.1 °F 50.4 °F 97% 30.01 in 10.0 mi Calm Calm - N/A   Clear
5:55 AM 50.9 °F 50.0 °F 97% 30.02 in 10.0 mi Calm Calm - N/A   Clear
6:15 AM 50.7 °F 50.0 °F 97% 30.03 in 10.0 mi Calm Calm - N/A   Clear
6:35 AM 50.2 °F 49.6 °F 98% 30.04 in 10.0 mi Calm Calm - N/A   Clear
6:55 AM 50.0 °F 49.5 °F 98% 30.04 in 10.0 mi Calm Calm - N/A   Clear
7:15 AM 49.8 °F 49.3 °F 98% 30.06 in 7.0 mi Calm Calm - N/A   Clear
7:35 AM 49.6 °F 49.1 °F 98% 30.07 in 7.0 mi Calm Calm - N/A   Clear
7:55 AM 49.5 °F 48.9 °F 98% 30.07 in 5.0 mi Calm Calm - N/A   Clear
8:15 AM 48.7 °F 48.2 °F 98% 30.07 in 10.0 mi Calm Calm - N/A   Clear
8:35 AM 51.1 °F 50.5 °F 98% 30.08 in 10.0 mi Calm Calm - N/A   Clear
8:55 AM 52.2 °F 51.1 °F 96% 30.08 in 10.0 mi Calm Calm - N/A   Clear
9:15 AM 52.9 °F 50.7 °F 92% 30.08 in 10.0 mi Calm Calm - N/A   Clear
9:35 AM 53.8 °F 51.1 °F 91% 30.09 in 10.0 mi Calm Calm - N/A   Clear
9:55 AM 54.7 °F 51.6 °F 89% 30.09 in 10.0 mi Calm Calm - N/A   Clear
10:15 AM 56.1 °F 52.0 °F 86% 30.09 in 10.0 mi Calm Calm - N/A   Clear
10:35 AM 57.4 °F 52.3 °F 83% 30.09 in 10.0 mi Calm Calm - N/A   Clear
10:55 AM 58.8 °F 52.5 °F 80% 30.09 in 10.0 mi Calm Calm - N/A   Scattered Clouds
11:15 AM 60.1 °F 52.7 °F 77% 30.10 in 10.0 mi Calm Calm - N/A   Scattered Clouds
11:35 AM 61.3 °F 52.3 °F 72% 30.10 in 10.0 mi Calm Calm - N/A   Clear
11:55 AM 63.5 °F 52.9 °F 68% 30.11 in 10.0 mi Calm Calm - N/A   Clear
12:15 PM 64.2 °F 52.2 °F 65% 30.10 in 10.0 mi ENE 4.6 mph - N/A   Clear
12:35 PM 64.2 °F 51.8 °F 64% 30.10 in 10.0 mi Calm Calm - N/A   Clear
12:55 PM 65.1 °F 52.7 °F 64% 30.09 in 10.0 mi Calm Calm - N/A   Clear
1:15 PM 66.4 °F 53.4 °F 63% 30.08 in 10.0 mi Calm Calm - N/A   Clear
1:35 PM 67.5 °F 53.8 °F 61% 30.08 in 10.0 mi Calm Calm - N/A   Scattered Clouds
1:55 PM 64.4 °F 53.2 °F 67% 30.06 in 10.0 mi Calm Calm - N/A   Scattered Clouds
2:15 PM 65.5 °F 53.1 °F 64% 30.06 in 7.0 mi Calm Calm - N/A   Scattered Clouds
2:35 PM 66.9 °F 52.7 °F 60% 30.06 in 10.0 mi Calm Calm - N/A   Clear
2:55 PM 67.3 °F 52.9 °F 60% 30.05 in 10.0 mi Calm Calm - N/A   Clear
3:15 PM 68.9 °F 54.0 °F 59% 30.05 in 10.0 mi Calm Calm - N/A   Scattered Clouds
3:55 PM 68.0 °F 54.1 °F 61% 30.04 in 10.0 mi Calm Calm - N/A   Scattered Clouds
4:15 PM 67.5 °F 54.5 °F 63% 30.05 in 10.0 mi Calm Calm - N/A   Scattered Clouds
4:35 PM 67.6 °F 54.5 °F 63% 30.05 in 10.0 mi Calm Calm - N/A   Scattered Clouds
4:55 PM 65.7 °F 54.3 °F 67% 30.05 in 10.0 mi Calm Calm - N/A   Mostly Cloudy
5:15 PM 65.5 °F 54.5 °F 68% 30.05 in 10.0 mi Calm Calm - N/A   Scattered Clouds
5:35 PM 64.6 °F 54.7 °F 70% 30.05 in 10.0 mi Calm Calm - N/A   Mostly Cloudy
5:55 PM 62.8 °F 55.0 °F 76% 30.04 in 10.0 mi Calm Calm - N/A   Scattered Clouds
6:15 PM 61.0 °F 54.9 °F 80% 30.05 in 10.0 mi Calm Calm - N/A   Clear
6:35 PM 59.5 °F 55.4 °F 86% 30.05 in 10.0 mi Calm Calm - N/A   Clear
6:55 PM 59.0 °F 55.6 °F 88% 30.06 in 10.0 mi Calm Calm - N/A   Clear
7:15 PM 59.0 °F 55.8 °F 89% 30.06 in 10.0 mi Calm Calm - N/A   Clear
7:35 PM 58.3 °F 55.6 °F 91% 30.06 in 10.0 mi Calm Calm - N/A   Scattered Clouds
7:55 PM 58.1 °F 55.4 °F 91% 30.07 in 10.0 mi Calm Calm - N/A   Mostly Cloudy
8:15 PM 57.7 °F 55.2 °F 91% 30.08 in 10.0 mi Calm Calm - N/A   Overcast
8:35 PM 57.4 °F 55.0 °F 92% 30.08 in 7.0 mi Calm Calm - N/A   Overcast
8:55 PM 57.2 °F 55.0 °F 92% 30.07 in 7.0 mi Calm Calm - N/A   Overcast
9:15 PM 57.2 °F 54.9 °F 92% 30.08 in 7.0 mi SSE 6.9 mph - N/A   Overcast
9:55 PM 57.2 °F 54.9 °F 92% 30.08 in 5.0 mi SE 5.8 mph - N/A   Overcast
10:15 PM 56.8 °F 54.9 °F 93% 30.08 in 5.0 mi SSE 5.8 mph - N/A   Overcast
10:35 PM 56.8 °F 54.9 °F 93% 30.08 in 5.0 mi SSE 9.2 mph - N/A   Overcast
10:55 PM 56.7 °F 54.9 °F 94% 30.08 in 5.0 mi Calm Calm - N/A   Overcast
11:15 PM 56.7 °F 54.9 °F 94% 30.07 in 10.0 mi Calm Calm - N/A   Overcast
11:35 PM 56.7 °F 54.9 °F 94% 30.08 in 10.0 mi Calm Calm - N/A   Overcast
11:55 PM 56.8 °F 54.7 °F 92% 30.07 in 10.0 mi Calm Calm - N/A   Overcast